Tracking 23762 objects as of 20-Oct-2021
HD Live streaming from Space Station
objects crossing your sky now

COSMOS 2491 DEB

Track COSMOS 2491 DEB now!
10-day predictions


NORAD ID: 45130
Int'l Code: 2013-076AB
Perigee: 1,318.7 km
Apogee: 1,531.8 km
Inclination: 82.5 °
Period: 114.2 minutes
Semi major axis: 7796 km
RCS: Unknown
Launch date: December 25, 2013
Source: Commonwealth of Independent States (former USSR) (CIS)
Launch site: PLESETSK MISSILE AND SPACE COMPLEX (PKMTR)

Note: This is SATELLITE DEBRIS
aabbcc
Your satellite tracking list
Your tracking list is empty




NASA's NSSDC Master Catalog

Two Line Element Set (TLE):
1 45130U 13076AC  21292.28973723  .00001141  00000-0  61897-2 0  9997
2 45130  82.4633 134.8979 0136706  35.4598 325.5486 12.61175380 79327
Source of the keplerian elements: AFSPC